Indian Springs, NV

12:36 PM PST on January 18, 2017 (GMT -0800)
Indian Springs Air Force Auxiliary

Weather History for KINS - November, 2013

Change the Weather History Date:

Friday, November 15, 2013

  Actual Average (KDRA) Record (KDRA)
Temperature  
Mean Temperature 54 °F -  
Max Temperature 68 °F 60 °F 78 °F (1999)
Min Temperature 40 °F 38 °F 22 °F (2000)
Degree Days  
Heating Degree Days 11    
Growing Degree Days 4 (Base 50)    
Moisture  
Dew Point 19 °F    
Average Humidity 28    
Maximum Humidity 44    
Minimum Humidity 14    
Precipitation  
Precipitation 0.00 in - - ()
Sea Level Pressure  
Sea Level Pressure 29.66 in    
Wind  
Wind Speed 5 mph (WNW)    
Max Wind Speed 10 mph    
Max Gust Speed -    
Visibility 10 miles    
Events      
Averages and records for this station are not official NWS values.
T = Trace of Precipitation, MM = Missing Value Source: NWS Daily Summary

Daily Weather History Graph

Daily Weather History Graph

Search for Another Location

Airport or City:

Trip Planner

Search our weather history database for the weather conditions in past years. The results will help you decide how hot, cold, wet, or windy it might be!

Date:

Astronomy

Nov. 15, 2013 Rise Set
Actual Time 6:20 AM PST 4:33 PM PST
Civil Twilight 5:53 AM PST 5:01 PM PST
Nautical Twilight 5:21 AM PST 5:32 PM PST
Astronomical Twilight 4:51 AM PST 6:02 PM PST
Moon 3:31 PM PST (11/15) 4:24 AM PST (11/15)
Length of Visible Light 11h 07m
Length of Day
10h 12m
Waxing Gibbous, 97% of the Moon is Illuminated
Nov 15
Waxing Gibbous
Nov 17
Full
Nov 25
Last Quarter
Dec 2
New
Dec 9
First Quarter

Hourly Weather History & Observations

Time (PST) Temp. Windchill Dew Point Humidity Pressure Visibility Wind Dir Wind Speed Gust Speed Precip Events Conditions
12:58 AM 46.0 °F - 18.9 °F 34% 29.70 in 10.0 mi NNW 2.3 mph - N/A   Clear
1:58 AM 45.1 °F 40.3 °F 18.9 °F 35% 29.68 in 10.0 mi West 9.2 mph - N/A   Clear
2:58 AM 44.4 °F 39.0 °F 19.6 °F 37% 29.68 in 10.0 mi WSW 10.4 mph - N/A   Clear
3:58 AM 41.9 °F 35.9 °F 19.4 °F 41% 29.68 in 10.0 mi SW 10.4 mph - N/A   Clear
4:58 AM 42.4 °F 39.6 °F 20.3 °F 41% 29.66 in 10.0 mi SW 4.6 mph - N/A   Clear
5:55 AM 42.8 °F - 21.2 °F 42% 29.58 in 10.0 mi Calm Calm - N/A   Clear
6:55 AM 40.6 °F - 20.3 °F 44% 29.62 in 10.0 mi Calm Calm - N/A   Clear
7:58 AM 46.8 °F - 21.4 °F 37% 29.69 in 10.0 mi NNW 2.3 mph - N/A   Clear
8:58 AM 50.9 °F - 21.6 °F 32% 29.68 in 10.0 mi East 2.3 mph - N/A   Clear
9:58 AM 59.5 °F - 23.0 °F 25% 29.69 in 10.0 mi Calm Calm - N/A   Clear
10:58 AM 64.0 °F - 21.4 °F 20% 29.68 in 10.0 mi WSW 4.6 mph - N/A   Clear
11:58 AM 67.5 °F - 20.1 °F 16% 29.65 in 10.0 mi Variable 3.5 mph - N/A   Clear
12:58 PM 68.2 °F - 17.6 °F 14% 29.64 in 10.0 mi Variable 5.8 mph - N/A   Clear
1:58 PM 68.5 °F - 18.0 °F 15% 29.63 in 10.0 mi NW 8.1 mph - N/A   Clear
2:58 PM 68.4 °F - 17.6 °F 14% 29.62 in 10.0 mi West 9.2 mph - N/A   Clear
3:58 PM 66.9 °F - 18.1 °F 15% 29.63 in 10.0 mi NW 9.2 mph - N/A   Clear
4:58 PM 60.3 °F - 18.1 °F 20% 29.63 in 10.0 mi NNW 8.1 mph - N/A   Clear
5:58 PM 58.8 °F - 18.0 °F 20% 29.64 in 10.0 mi NE 1.2 mph - N/A   Clear
6:58 PM 58.3 °F - 17.6 °F 20% 29.67 in 10.0 mi NW 3.5 mph - N/A   Clear
7:58 PM 52.9 °F - 16.7 °F 24% 29.69 in 10.0 mi NW 2.3 mph - N/A   Clear
8:58 PM 52.0 °F - 17.4 °F 26% 29.68 in 10.0 mi Calm Calm - N/A   Clear
9:58 PM 47.1 °F - 17.6 °F 31% 29.68 in 10.0 mi Calm Calm - N/A   Clear
10:58 PM 41.2 °F 36.6 °F 16.3 °F 37% 29.69 in 10.0 mi West 6.9 mph - N/A   Clear
11:58 PM 41.0 °F - 16.2 °F 37% 29.69 in 10.0 mi Calm Calm - N/A   Clear